SCP
-0 -0 0 0 0 -0 -0 -0 -0 -0 -0 -0 0 0 -0 -0 -0 -0 -0 -0 -0 -0 -0 0 0 -0 -0 -0 -0 -0 0 0 -0 -0 -0 -0 -0 -0 -0 0 0 0 0
-0 -0 0 0 0 0 -0 -0 -0 -0 -0 0 -0 -0 -0 -0 -0 -0 -0 -0 -0 -0 0 0 0 -0 -0 -0 -0 0 0 0 0 -0 -0 -0 -0 -0 -0 -0 0 0 0
0 -0 0 0 0 0 -0 -0 -0 -0 0 -0 -0 -0 -0 -0 -0 -0 -0 -0 -0 0 0 0 -0 -0 -0 -0 -0 -0 -0 0 -0 -0 -0 0 -0 -0 -0 0 0 0 0
0 -0 0 0 0 0 0 -0 -0 -0 -0 -0 0 -0 -0 -0 -0 -0 -0 0 0 -0 0 0 -0 -0 -0 -0 -0 -0 0 0 -0 0 0 0 0 0 0 0 0 0 0
0 -0 -0 -0 0 0 0 -0 -0 -0 -0 -0 -0 -0 -0 -0 -0 -0 0 0 0 -0 0 -0 -0 -0 -0 -0 -0 -0 0 -0 -0 0 0 0 0 0 0 0 0 0 0
0 -0 -0 -0 -0 0 -0 -0 -0 -0 0 -0 -0 -0 -0 -0 0 0 0 0 0 0 -0 -0 -0 -0 -0 -0 -0 -0 -0 -0 0 0 0 0 0 0 0 0 0 0 0
0 -0 -0 -0 0 -0 0 -0 0 0 0 0 0 -0 -0 0 0 0 0 0 -0 -0 -0 -0 -0 -0 -0 -0 -0 -0 -0 -0 0 0 0 0 0 0 0 0 0 0 0
0 0 -0 0 0 0 0 0 0 0 -0 -0 -0 -0 -0 0 -0 0 0 0 0 -0 -0 -0 -0 -0 -0 -0 -0 0 -0 -0 0 0 0 0 0 0 0 0 0 0 0
-0 0 0 0 0 0 0 0 0 -0 -0 0 -0 -0 0 0 0 0 -0 -0 -0 -0 -0 -0 -0 -0 -0 -0 0 0 -0 -0 0 0 0 0 0 0 0 0 0 0 0
-0 0 0 0 0 0 0 0 0 0 0 0 0 0 0 0 0 0 0 -0 -0 -0 -0 -0 -0 -0 -0 0 0 0 0 0 0 0 0 0 0 0 0 0 0 0 0
-0 0 0 0 -0 0 0 0 0 0 0 0 0 0 0 0 0 -0 0 0 -0 -0 -0 -0 -0 -0 0 0 0 0 0 0 0 0 0 0 0 0 0 0 0 0 0
-0 -0 0 0 0 0 0 0 0 0 0 0 0 0 -0 0 0 0 0 -0 -0 -0 -0 0 0 0 0 0 0 0 0 0 0 0 0 0 0 0 0 0 0 0 0
-0 0 0 0 0 0 0 0 0 0 0 0 0 -0 0 0 0 0 0 -0 -0 -0 0 0 0 0 0 0 0 0 0 0 0 0 0 0 0 0 0 0 0 0 0
-0 0 0 0 0 0 0 0 0 0 0 0 0 0 0 0 0 0 0 0 0 0 0 0 0 0 0 0 0 0 0 0 0 0 0 0 0 0 0 0 0 0 0
0 0 0 0 0 0 0 0 0 0 0 0 0 0 0 0 0 0 0 0 0 0 0 0 0 0 0 0 0 0 0 0 0 0 0 0 0 0 0 0 0 0 0
0 0 0 0 0 0 0 0 0 0 0 0 0 0 0 0 0 0 0 0 0 0 0 0 0 0 0 0 0 0 0 0 0 0 0 0 0 0 0 0 0 0 0
0 0 0 0 0 0 0 0 0 0 0 0 0 0 0 0 0 0 0 0 0 0 0 0 0 0 0 0 0 0 0 0 0 0 0 0 0 0 0 0 0 0 0
0 0 0 0 0 0 0 0 0 0 0 0 0 0 0 0 0 0 0 0 0 0 0 0 0 0 0 0 0 0 0 0 0 0 0 0 0 0 0 0 0 0 0
0 0 0 0 0 0 0 0 0 0 0 0 0 0 0 0 0 0 0 0 0 0 0 0 0 0 0 0 0 0 0 0 0 0 0 0 0 0 0 0 0 0 0
0 0 0 0 0 0 0 0 0 0 0 0 0 0 0 0 0 0 0 0 0 0 0 0 0 0 0 0 0 0 0 0 0 0 0 0 0 0 0 0 0 0 0
0 0 0 0 0 0 0 0 0 0 0 0 0 0 0 0 0 0 0 0 0 0 0 0 0 0 0 0 0 0 0 0 0 0 0 0 0 0 0 0 0 0 0
0 0 0 0 0 0 0 0 0 0 0 0 0 0 0 0 0 0 0 0 0 0 0 0 0 0 0 0 0 0 0 0 0 0 0 0 0 0 0 0 0 0 0
0 0 0 0 0 0 0 0 0 0 0 0 0 0 0 0 0 0 0 0 0 0 0 0 0 0 0 0 0 0 0 0 0 0 0 0 0 0 0 0 0 0 0
0 0 0 0 0 0 0 0 0 0 0 0 0 0 0 0 0 0 0 0 0 0 0 0 0 0 0 0 0 0 0 0 0 0 0 0 0 0 0 0 0 0 0
0 0 0 0 0 0 0 0 0 0 0 0 0 0 0 0 0 0 0 0 0 0 0 0 0 0 0 0 0 0 0 0 0 0 0 0 0 0 0 0 0 0 0
0 0 0 0 0 0 0 0 0 0 0 0 0 0 0 0 0 0 0 0 0 0 0 0 0 0 0 0 0 0 0 0 0 0 0 0 0 0 0 0 0 0 0
Wind_Speed_500mb
22 23 25 25 26 23 24 20 18 16 15 11 7 6 7 12 18 29 33 26 21 28 31 29 33 30 30 27 28 34 38 38 38 37 37 35 35 35 37 33 34 36 37
28 23 26 24 23 21 19 15 13 11 8 5 3 5 9 15 25 26 28 27 22 28 32 31 31 30 31 31 34 39 38 35 35 37 36 31 31 31 29 28 31 30 32
28 27 26 24 19 20 17 14 9 7 6 2 3 7 16 20 29 27 22 28 18 25 31 28 30 30 31 33 36 35 33 34 41 37 29 30 31 30 27 26 28 30 30
26 24 24 23 22 19 15 13 10 5 3 2 4 12 18 27 30 21 25 25 17 26 28 29 30 31 32 33 33 31 30 29 34 32 23 25 27 28 30 29 28 28 28
27 23 22 21 18 14 15 14 6 1 3 5 10 16 22 28 27 21 28 24 16 24 27 28 29 31 30 30 30 28 26 26 27 26 25 24 22 25 25 25 24 26 25
27 22 21 19 18 16 18 14 5 3 1 5 16 21 24 27 25 21 22 23 18 23 25 26 27 26 27 28 26 23 22 26 25 26 21 24 20 22 22 24 24 23 23
26 21 22 20 19 20 20 13 6 4 2 5 12 17 18 19 23 21 16 23 18 22 23 23 23 23 23 23 21 20 21 26 19 22 19 18 19 21 21 24 23 21 25
24 22 19 23 23 21 18 13 8 4 8 5 12 15 14 13 16 21 16 17 18 20 19 20 20 20 20 18 16 16 18 23 17 18 14 15 21 23 19 15 16 21 20
23 22 18 22 26 24 22 19 12 12 13 9 11 17 16 15 13 14 12 13 16 17 18 18 18 17 15 13 11 12 15 20 13 13 14 6 12 11 11 15 19 18 14
24 22 22 22 25 25 27 24 23 22 23 15 14 17 16 16 14 14 13 13 15 15 14 14 13 12 11 8 6 8 10 13 10 12 8 13 13 14 14 14 14 15 14
28 26 25 25 24 24 21 28 27 29 25 22 19 17 16 15 14 13 12 12 14 15 14 13 12 9 7 3 3 4 5 7 7 7 5 13 14 16 14 14 13 12 15
35 32 29 28 27 28 25 28 28 27 36 29 27 19 12 16 15 15 14 14 14 15 14 12 9 7 3 2 3 5 6 6 7 8 10 13 15 16 15 15 14 14 16
37 33 33 33 31 30 29 26 25 25 28 29 24 22 22 19 19 16 15 14 15 15 13 11 8 6 3 7 10 8 11 11 9 12 15 15 16 17 18 17 17 16 24
41 38 35 34 35 33 30 32 30 29 30 29 29 28 25 24 20 20 17 16 17 17 16 14 11 12 11 11 13 14 16 15 13 15 16 19 20 20 21 21 20 23 27
44 43 38 37 37 36 36 34 32 32 34 30 31 32 30 27 25 23 22 21 20 18 17 16 15 15 15 15 17 18 19 20 20 22 21 26 24 26 25 24 24 24 24
53 51 43 41 39 37 38 35 34 34 33 35 33 35 36 30 28 26 26 26 23 22 21 20 17 17 18 19 19 21 22 24 25 25 27 30 29 30 30 29 28 27 28
55 51 47 47 45 41 40 39 37 37 37 36 37 37 37 37 32 29 28 27 26 26 27 26 26 24 24 24 24 25 26 28 28 29 32 34 34 36 32 32 32 30 31
48 49 49 53 51 49 44 42 41 37 40 40 39 39 40 38 38 34 31 29 29 29 29 29 27 26 25 23 25 25 29 32 32 33 36 38 37 36 39 35 31 32 31
48 52 55 56 55 53 50 47 47 46 44 42 40 42 41 43 41 38 35 33 32 33 33 32 31 29 26 27 31 32 33 36 39 40 41 41 39 38 38 40 40 35 36
50 53 53 59 60 57 55 52 50 52 52 48 46 46 45 46 45 44 42 39 38 38 37 37 36 34 35 34 33 36 42 43 44 46 45 43 42 38 32 34 39 42 41
52 54 57 57 61 60 62 61 59 59 58 58 55 51 50 51 50 50 49 47 45 46 43 40 40 41 42 39 38 43 41 39 44 45 41 41 38 39 40 38 39 42 46
56 60 60 61 61 66 70 67 65 62 63 58 53 56 55 55 54 55 53 52 52 50 49 48 47 47 46 41 36 28 26 33 33 38 36 34 40 38 48 46 47 50 52
61 68 68 71 73 73 73 70 69 64 61 63 67 66 62 59 58 57 56 56 57 56 55 52 52 52 52 46 47 37 17 19 24 28 31 38 41 45 46 61 57 56 58
65 67 72 76 78 78 77 80 83 79 80 77 71 69 67 63 63 62 60 59 60 60 60 57 55 56 55 57 48 54 58 56 36 36 38 37 43 60 61 63 61 60 62
68 71 75 76 81 82 83 87 87 88 86 76 71 69 67 67 66 67 66 66 66 66 64 63 61 63 62 62 61 57 60 59 55 56 52 49 58 66 67 63 55 51 59
78 78 80 82 85 84 86 90 92 91 89 85 81 75 73 68 66 67 67 68 65 63 64 61 60 61 60 59 59 59 57 56 54 56 58 64 70 75 64 56 54 49 46
Wind_Direction_500mb
139 149 136 137 133 139 130 129 131 127 123 117 97 61 71 91 96 96 103 94 83 96 98 96 99 100 106 103 93 92 87 90 89 87 90 88 80 78 77 74 69 64 60
143 148 138 137 143 143 134 136 133 131 121 107 65 55 112 117 105 98 102 104 93 93 96 97 100 96 92 91 88 84 82 82 78 74 63 74 77 76 80 73 73 71 73
143 156 148 147 157 155 152 151 151 145 124 129 70 104 127 124 110 104 101 101 94 93 99 96 97 96 93 91 86 86 85 83 82 75 71 70 71 70 71 70 70 72 65
146 147 161 159 167 167 168 162 149 137 128 76 104 119 123 123 113 121 107 106 112 97 98 98 99 99 95 92 90 87 84 79 82 88 79 71 65 67 66 66 64 64 63
149 153 175 167 172 181 179 170 168 173 80 117 134 123 125 121 125 121 109 114 111 100 103 105 105 101 102 98 92 87 82 77 77 79 78 74 59 61 56 60 58 56 54
153 162 168 178 177 187 182 181 190 298 125 138 143 133 133 128 129 122 118 111 106 110 110 109 106 106 101 94 92 89 77 75 69 70 60 67 64 59 54 51 49 44 40
157 175 175 179 180 184 183 188 199 277 168 126 149 142 145 144 134 125 126 122 125 116 111 114 110 104 103 97 92 86 79 79 78 72 62 58 53 50 39 40 36 32 31
167 171 185 180 180 187 191 198 190 185 165 162 161 149 145 139 137 137 139 132 125 112 113 116 116 113 105 100 93 85 79 78 65 73 66 33 45 33 26 25 29 15 21
180 172 182 186 187 192 206 208 188 180 184 170 176 153 151 146 144 138 130 123 122 129 131 129 125 118 110 102 94 83 73 78 74 73 61 337 41 34 12 7 14 7 15
187 180 178 185 190 195 203 198 207 185 192 192 194 180 164 157 151 149 146 137 140 143 139 135 129 126 119 115 100 75 70 63 59 46 24 23 19 12 2 5 12 13 6
194 188 186 186 179 181 198 203 217 188 198 198 197 194 180 187 174 163 150 157 158 158 159 158 149 136 136 126 58 39 30 47 39 27 354 1 5 1 356 0 0 346 337
198 195 193 190 189 186 185 206 214 212 203 209 213 222 170 195 187 192 178 174 174 177 179 175 164 156 169 322 315 320 353 329 350 336 324 343 346 346 344 346 342 332 324
201 203 198 199 200 197 196 200 198 205 204 200 209 215 205 200 199 202 198 190 187 193 198 202 199 205 219 224 263 289 287 305 309 315 311 322 327 332 333 328 323 321 314
202 205 205 204 204 204 200 196 201 201 205 207 208 212 210 205 212 208 212 211 208 207 211 219 227 232 247 258 269 275 291 291 295 290 297 307 311 316 318 317 319 316 313
207 207 210 207 209 208 202 202 204 206 215 215 217 219 217 212 218 216 217 220 221 224 226 232 239 255 263 273 279 286 291 294 291 292 293 302 304 305 307 308 312 314 306
215 218 211 213 212 211 212 208 208 211 219 218 221 222 219 215 220 220 221 225 228 232 236 239 246 261 271 277 283 286 288 288 290 292 296 297 304 300 302 303 302 303 303
219 217 216 217 217 213 216 216 214 218 217 220 222 223 223 220 221 221 224 229 233 236 238 243 249 259 268 278 282 282 288 288 290 295 298 298 298 302 299 300 301 297 297
218 215 214 220 221 223 220 220 222 222 224 225 224 226 226 225 225 227 230 233 234 239 244 247 254 260 267 269 274 277 284 289 292 296 294 295 297 297 299 304 304 309 297
216 215 214 221 225 227 228 226 228 229 229 228 227 228 229 228 229 231 234 236 238 241 245 249 253 257 260 269 275 276 279 281 289 294 294 294 295 297 297 300 298 293 287
214 217 215 221 228 228 229 230 230 232 233 230 230 231 232 233 232 234 236 238 240 245 247 251 254 259 265 267 270 275 284 287 285 288 288 288 292 295 304 312 307 296 291
213 214 217 216 223 223 226 227 229 230 235 235 235 237 236 236 237 237 238 240 243 248 251 254 258 261 263 272 277 281 293 293 289 288 287 286 283 286 291 299 301 301 300
217 219 216 219 221 223 229 232 235 235 238 242 244 241 239 240 239 242 242 244 246 250 253 255 258 261 266 265 260 276 284 295 282 277 284 277 283 280 284 298 296 300 300
228 227 228 230 228 230 231 232 234 234 239 240 238 241 239 240 242 244 246 247 249 251 254 258 260 263 266 266 267 254 268 260 289 278 278 284 284 285 288 300 301 300 299
236 236 238 234 232 231 231 230 235 238 237 239 241 243 245 243 244 245 247 249 251 253 256 259 262 264 264 265 259 264 268 269 279 287 279 272 280 286 302 307 303 303 303
245 244 239 239 237 235 232 235 236 238 241 242 243 244 246 246 246 247 248 249 251 254 259 261 262 262 262 263 266 265 271 277 274 270 283 287 295 297 297 301 307 305 313
244 247 244 239 238 238 237 237 239 240 241 242 240 243 246 247 248 247 246 247 249 251 254 257 260 261 264 266 267 266 259 261 271 276 280 288 293 299 303 296 291 302 312
Wind_Speed_850mb
22 23 25 25 26 23 24 20 18 16 15 11 7 6 7 12 18 29 33 26 21 28 31 29 33 30 30 27 28 34 38 38 38 37 37 35 35 35 37 33 34 36 37
28 23 26 24 23 21 19 15 13 11 8 5 3 5 9 15 25 26 28 27 22 28 32 31 31 30 31 31 34 39 38 35 35 37 36 31 31 31 29 28 31 30 32
28 27 26 24 19 20 17 14 9 7 6 2 3 7 16 20 29 27 22 28 18 25 31 28 30 30 31 33 36 35 33 34 41 37 29 30 31 30 27 26 28 30 30
26 24 24 23 22 19 15 13 10 5 3 2 4 12 18 27 30 21 25 25 17 26 28 29 30 31 32 33 33 31 30 29 34 32 23 25 27 28 30 29 28 28 28
27 23 22 21 18 14 15 14 6 1 3 5 10 16 22 28 27 21 28 24 16 24 27 28 29 31 30 30 30 28 26 26 27 26 25 24 22 25 25 25 24 26 25
27 22 21 19 18 16 18 14 5 3 1 5 16 21 24 27 25 21 22 23 18 23 25 26 27 26 27 28 26 23 22 26 25 26 21 24 20 22 22 24 24 23 23
26 21 22 20 19 20 20 13 6 4 2 5 12 17 18 19 23 21 16 23 18 22 23 23 23 23 23 23 21 20 21 26 19 22 19 18 19 21 21 24 23 21 25
24 22 19 23 23 21 18 13 8 4 8 5 12 15 14 13 16 21 16 17 18 20 19 20 20 20 20 18 16 16 18 23 17 18 14 15 21 23 19 15 16 21 20
23 22 18 22 26 24 22 19 12 12 13 9 11 17 16 15 13 14 12 13 16 17 18 18 18 17 15 13 11 12 15 20 13 13 14 6 12 11 11 15 19 18 14
24 22 22 22 25 25 27 24 23 22 23 15 14 17 16 16 14 14 13 13 15 15 14 14 13 12 11 8 6 8 10 13 10 12 8 13 13 14 14 14 14 15 14
28 26 25 25 24 24 21 28 27 29 25 22 19 17 16 15 14 13 12 12 14 15 14 13 12 9 7 3 3 4 5 7 7 7 5 13 14 16 14 14 13 12 15
35 32 29 28 27 28 25 28 28 27 36 29 27 19 12 16 15 15 14 14 14 15 14 12 9 7 3 2 3 5 6 6 7 8 10 13 15 16 15 15 14 14 16
37 33 33 33 31 30 29 26 25 25 28 29 24 22 22 19 19 16 15 14 15 15 13 11 8 6 3 7 10 8 11 11 9 12 15 15 16 17 18 17 17 16 24
41 38 35 34 35 33 30 32 30 29 30 29 29 28 25 24 20 20 17 16 17 17 16 14 11 12 11 11 13 14 16 15 13 15 16 19 20 20 21 21 20 23 27
44 43 38 37 37 36 36 34 32 32 34 30 31 32 30 27 25 23 22 21 20 18 17 16 15 15 15 15 17 18 19 20 20 22 21 26 24 26 25 24 24 24 24
53 51 43 41 39 37 38 35 34 34 33 35 33 35 36 30 28 26 26 26 23 22 21 20 17 17 18 19 19 21 22 24 25 25 27 30 29 30 30 29 28 27 28
55 51 47 47 45 41 40 39 37 37 37 36 37 37 37 37 32 29 28 27 26 26 27 26 26 24 24 24 24 25 26 28 28 29 32 34 34 36 32 32 32 30 31
48 49 49 53 51 49 44 42 41 37 40 40 39 39 40 38 38 34 31 29 29 29 29 29 27 26 25 23 25 25 29 32 32 33 36 38 37 36 39 35 31 32 31
48 52 55 56 55 53 50 47 47 46 44 42 40 42 41 43 41 38 35 33 32 33 33 32 31 29 26 27 31 32 33 36 39 40 41 41 39 38 38 40 40 35 36
50 53 53 59 60 57 55 52 50 52 52 48 46 46 45 46 45 44 42 39 38 38 37 37 36 34 35 34 33 36 42 43 44 46 45 43 42 38 32 34 39 42 41
52 54 57 57 61 60 62 61 59 59 58 58 55 51 50 51 50 50 49 47 45 46 43 40 40 41 42 39 38 43 41 39 44 45 41 41 38 39 40 38 39 42 46
56 60 60 61 61 66 70 67 65 62 63 58 53 56 55 55 54 55 53 52 52 50 49 48 47 47 46 41 36 28 26 33 33 38 36 34 40 38 48 46 47 50 52
61 68 68 71 73 73 73 70 69 64 61 63 67 66 62 59 58 57 56 56 57 56 55 52 52 52 52 46 47 37 17 19 24 28 31 38 41 45 46 61 57 56 58
65 67 72 76 78 78 77 80 83 79 80 77 71 69 67 63 63 62 60 59 60 60 60 57 55 56 55 57 48 54 58 56 36 36 38 37 43 60 61 63 61 60 62
68 71 75 76 81 82 83 87 87 88 86 76 71 69 67 67 66 67 66 66 66 66 64 63 61 63 62 62 61 57 60 59 55 56 52 49 58 66 67 63 55 51 59
78 78 80 82 85 84 86 90 92 91 89 85 81 75 73 68 66 67 67 68 65 63 64 61 60 61 60 59 59 59 57 56 54 56 58 64 70 75 64 56 54 49 46
Wind_Direction_850mb
139 149 136 137 133 139 130 129 131 127 123 117 97 61 71 91 96 96 103 94 83 96 98 96 99 100 106 103 93 92 87 90 89 87 90 88 80 78 77 74 69 64 60
143 148 138 137 143 143 134 136 133 131 121 107 65 55 112 117 105 98 102 104 93 93 96 97 100 96 92 91 88 84 82 82 78 74 63 74 77 76 80 73 73 71 73
143 156 148 147 157 155 152 151 151 145 124 129 70 104 127 124 110 104 101 101 94 93 99 96 97 96 93 91 86 86 85 83 82 75 71 70 71 70 71 70 70 72 65
146 147 161 159 167 167 168 162 149 137 128 76 104 119 123 123 113 121 107 106 112 97 98 98 99 99 95 92 90 87 84 79 82 88 79 71 65 67 66 66 64 64 63
149 153 175 167 172 181 179 170 168 173 80 117 134 123 125 121 125 121 109 114 111 100 103 105 105 101 102 98 92 87 82 77 77 79 78 74 59 61 56 60 58 56 54
153 162 168 178 177 187 182 181 190 298 125 138 143 133 133 128 129 122 118 111 106 110 110 109 106 106 101 94 92 89 77 75 69 70 60 67 64 59 54 51 49 44 40
157 175 175 179 180 184 183 188 199 277 168 126 149 142 145 144 134 125 126 122 125 116 111 114 110 104 103 97 92 86 79 79 78 72 62 58 53 50 39 40 36 32 31
167 171 185 180 180 187 191 198 190 185 165 162 161 149 145 139 137 137 139 132 125 112 113 116 116 113 105 100 93 85 79 78 65 73 66 33 45 33 26 25 29 15 21
180 172 182 186 187 192 206 208 188 180 184 170 176 153 151 146 144 138 130 123 122 129 131 129 125 118 110 102 94 83 73 78 74 73 61 337 41 34 12 7 14 7 15
187 180 178 185 190 195 203 198 207 185 192 192 194 180 164 157 151 149 146 137 140 143 139 135 129 126 119 115 100 75 70 63 59 46 24 23 19 12 2 5 12 13 6
194 188 186 186 179 181 198 203 217 188 198 198 197 194 180 187 174 163 150 157 158 158 159 158 149 136 136 126 58 39 30 47 39 27 354 1 5 1 356 0 0 346 337
198 195 193 190 189 186 185 206 214 212 203 209 213 222 170 195 187 192 178 174 174 177 179 175 164 156 169 322 315 320 353 329 350 336 324 343 346 346 344 346 342 332 324
201 203 198 199 200 197 196 200 198 205 204 200 209 215 205 200 199 202 198 190 187 193 198 202 199 205 219 224 263 289 287 305 309 315 311 322 327 332 333 328 323 321 314
202 205 205 204 204 204 200 196 201 201 205 207 208 212 210 205 212 208 212 211 208 207 211 219 227 232 247 258 269 275 291 291 295 290 297 307 311 316 318 317 319 316 313
207 207 210 207 209 208 202 202 204 206 215 215 217 219 217 212 218 216 217 220 221 224 226 232 239 255 263 273 279 286 291 294 291 292 293 302 304 305 307 308 312 314 306
215 218 211 213 212 211 212 208 208 211 219 218 221 222 219 215 220 220 221 225 228 232 236 239 246 261 271 277 283 286 288 288 290 292 296 297 304 300 302 303 302 303 303
219 217 216 217 217 213 216 216 214 218 217 220 222 223 223 220 221 221 224 229 233 236 238 243 249 259 268 278 282 282 288 288 290 295 298 298 298 302 299 300 301 297 297
218 215 214 220 221 223 220 220 222 222 224 225 224 226 226 225 225 227 230 233 234 239 244 247 254 260 267 269 274 277 284 289 292 296 294 295 297 297 299 304 304 309 297
216 215 214 221 225 227 228 226 228 229 229 228 227 228 229 228 229 231 234 236 238 241 245 249 253 257 260 269 275 276 279 281 289 294 294 294 295 297 297 300 298 293 287
214 217 215 221 228 228 229 230 230 232 233 230 230 231 232 233 232 234 236 238 240 245 247 251 254 259 265 267 270 275 284 287 285 288 288 288 292 295 304 312 307 296 291
213 214 217 216 223 223 226 227 229 230 235 235 235 237 236 236 237 237 238 240 243 248 251 254 258 261 263 272 277 281 293 293 289 288 287 286 283 286 291 299 301 301 300
217 219 216 219 221 223 229 232 235 235 238 242 244 241 239 240 239 242 242 244 246 250 253 255 258 261 266 265 260 276 284 295 282 277 284 277 283 280 284 298 296 300 300
228 227 228 230 228 230 231 232 234 234 239 240 238 241 239 240 242 244 246 247 249 251 254 258 260 263 266 266 267 254 268 260 289 278 278 284 284 285 288 300 301 300 299
236 236 238 234 232 231 231 230 235 238 237 239 241 243 245 243 244 245 247 249 251 253 256 259 262 264 264 265 259 264 268 269 279 287 279 272 280 286 302 307 303 303 303
245 244 239 239 237 235 232 235 236 238 241 242 243 244 246 246 246 247 248 249 251 254 259 261 262 262 262 263 266 265 271 277 274 270 283 287 295 297 297 301 307 305 313
244 247 244 239 238 238 237 237 239 240 241 242 240 243 246 247 248 247 246 247 249 251 254 257 260 261 264 266 267 266 259 261 271 276 280 288 293 299 303 296 291 302 312